Time,TemperatureF,DewpointF,PressureIn,WindDirection,WindDirectionDegrees,WindSpeedMPH,WindSpeedGustMPH,Humidity,HourlyPrecipIn,Conditions,Clouds,dailyrainin,SoftwareType,DateUTC
2013-01-27 00:00:00,13.0,5.4,30.69,NNW,337,0.0,7.0,71,0.00,,,0.00,Weather View 32 v70,2013-01-27 05:00:00,
2013-01-27 00:02:00,13.0,5.4,30.69,NNW,337,0.0,7.0,71,0.00,,,0.00,Weather View 32 v70,2013-01-27 05:02:00,
2013-01-27 00:07:00,13.0,5.1,30.70,NNW,337,2.0,7.0,70,0.00,,,0.00,Weather View 32 v70,2013-01-27 05:07:00,
2013-01-27 00:12:00,13.0,5.4,30.70,West,270,0.0,7.0,71,0.00,,,0.00,Weather View 32 v70,2013-01-27 05:12:00,
2013-01-27 00:17:00,13.0,5.4,30.70,NW,315,0.0,7.0,71,0.00,,,0.00,Weather View 32 v70,2013-01-27 05:17:00,
2013-01-27 00:22:00,13.0,5.4,30.70,NW,315,2.0,7.0,71,0.00,,,0.00,Weather View 32 v70,2013-01-27 05:22:00,
2013-01-27 00:27:00,13.0,5.4,30.70,West,270,0.0,7.0,71,0.00,,,0.00,Weather View 32 v70,2013-01-27 05:27:00,
2013-01-27 00:32:00,13.0,5.4,30.70,WNW,292,0.0,7.0,71,0.00,,,0.00,Weather View 32 v70,2013-01-27 05:32:00,
2013-01-27 00:37:00,13.0,5.7,30.71,West,270,1.0,7.0,72,0.00,,,0.00,Weather View 32 v70,2013-01-27 05:37:00,
2013-01-27 00:42:00,13.0,5.4,30.71,WNW,292,0.0,7.0,71,0.00,,,0.00,Weather View 32 v70,2013-01-27 05:42:00,
2013-01-27 00:47:00,13.0,5.1,30.70,NW,315,0.0,7.0,70,0.00,,,0.00,Weather View 32 v70,2013-01-27 05:47:00,
2013-01-27 00:52:00,13.0,5.4,30.70,WNW,292,0.0,7.0,71,0.00,,,0.00,Weather View 32 v70,2013-01-27 05:52:00,
2013-01-27 00:57:00,13.0,5.7,30.71,West,270,1.0,7.0,72,0.00,,,0.00,Weather View 32 v70,2013-01-27 05:57:00,
2013-01-27 01:02:00,13.0,5.7,30.71,West,270,0.0,7.0,72,0.00,,,0.00,Weather View 32 v70,2013-01-27 06:02:00,
2013-01-27 01:07:00,13.0,5.7,30.71,WNW,292,0.0,7.0,72,0.00,,,0.00,Weather View 32 v70,2013-01-27 06:07:00,
2013-01-27 01:12:00,13.0,6.3,30.71,WNW,292,1.0,7.0,74,0.00,,,0.00,Weather View 32 v70,2013-01-27 06:12:00,
2013-01-27 01:17:00,12.0,5.3,30.71,WNW,292,2.0,7.0,74,0.00,,,0.00,Weather View 32 v70,2013-01-27 06:17:00,
2013-01-27 01:22:00,13.0,6.3,30.71,SSW,202,0.0,7.0,74,0.00,,,0.00,Weather View 32 v70,2013-01-27 06:22:00,
2013-01-27 01:27:00,13.0,6.3,30.72,WNW,292,0.0,7.0,74,0.00,,,0.00,Weather View 32 v70,2013-01-27 06:27:00,
2013-01-27 01:32:00,13.0,6.3,30.72,West,270,1.0,7.0,74,0.00,,,0.00,Weather View 32 v70,2013-01-27 06:32:00,
2013-01-27 01:37:00,13.0,6.3,30.71,WSW,247,3.0,7.0,74,0.00,,,0.00,Weather View 32 v70,2013-01-27 06:37:00,
2013-01-27 01:42:00,13.0,6.3,30.71,SW,225,0.0,7.0,74,0.00,,,0.00,Weather View 32 v70,2013-01-27 06:42:00,
2013-01-27 01:47:00,13.0,6.3,30.72,NW,315,0.0,7.0,74,0.00,,,0.00,Weather View 32 v70,2013-01-27 06:47:00,
2013-01-27 01:52:00,13.0,6.3,30.72,WSW,247,1.0,7.0,74,0.00,,,0.00,Weather View 32 v70,2013-01-27 06:52:00,
2013-01-27 01:57:00,13.0,6.3,30.72,WSW,247,1.0,7.0,74,0.00,,,0.00,Weather View 32 v70,2013-01-27 06:57:00,
2013-01-27 02:02:00,12.0,5.3,30.72,WNW,292,0.0,7.0,74,0.00,,,0.00,Weather View 32 v70,2013-01-27 07:02:00,
2013-01-27 02:07:00,12.0,5.6,30.73,NNW,337,1.0,7.0,75,0.00,,,0.00,Weather View 32 v70,2013-01-27 07:07:00,
2013-01-27 02:13:00,12.0,5.6,30.73,WNW,292,6.0,7.0,75,0.00,,,0.00,Weather View 32 v70,2013-01-27 07:13:00,
2013-01-27 02:18:00,12.0,5.6,30.73,West,270,0.0,7.0,75,0.00,,,0.00,Weather View 32 v70,2013-01-27 07:18:00,
2013-01-27 02:23:00,12.0,5.9,30.73,West,270,0.0,7.0,76,0.00,,,0.00,Weather View 32 v70,2013-01-27 07:23:00,
2013-01-27 02:28:00,12.0,5.6,30.74,West,270,0.0,7.0,75,0.00,,,0.00,Weather View 32 v70,2013-01-27 07:28:00,
2013-01-27 02:33:00,12.0,6.2,30.74,WSW,247,2.0,6.0,77,0.00,,,0.00,Weather View 32 v70,2013-01-27 07:33:00,
2013-01-27 02:38:00,12.0,6.5,30.74,WNW,292,1.0,8.0,78,0.00,,,0.00,Weather View 32 v70,2013-01-27 07:38:00,
2013-01-27 02:43:00,12.0,6.5,30.74,NW,315,0.0,8.0,78,0.00,,,0.00,Weather View 32 v70,2013-01-27 07:43:00,
2013-01-27 02:48:00,12.0,6.7,30.74,WNW,292,0.0,8.0,79,0.00,,,0.00,Weather View 32 v70,2013-01-27 07:48:00,
2013-01-27 02:53:00,12.0,7.0,30.74,WNW,292,0.0,8.0,80,0.00,,,0.00,Weather View 32 v70,2013-01-27 07:53:00,
2013-01-27 02:58:00,12.0,7.0,30.75,WNW,292,0.0,8.0,80,0.00,,,0.00,Weather View 32 v70,2013-01-27 07:58:00,
2013-01-27 03:03:00,12.0,7.3,30.75,WNW,292,1.0,8.0,81,0.00,,,0.00,Weather View 32 v70,2013-01-27 08:03:00,
2013-01-27 03:08:00,12.0,7.3,30.74,SW,225,1.0,8.0,81,0.00,,,0.00,Weather View 32 v70,2013-01-27 08:08:00,
2013-01-27 03:13:00,12.0,7.3,30.74,NNW,337,3.0,8.0,81,0.00,,,0.00,Weather View 32 v70,2013-01-27 08:13:00,
2013-01-27 03:18:00,12.0,7.0,30.74,West,270,1.0,8.0,80,0.00,,,0.00,Weather View 32 v70,2013-01-27 08:18:00,
2013-01-27 03:23:00,12.0,7.0,30.74,WNW,292,0.0,8.0,80,0.00,,,0.00,Weather View 32 v70,2013-01-27 08:23:00,
2013-01-27 03:28:00,12.0,7.3,30.74,West,270,1.0,8.0,81,0.00,,,0.00,Weather View 32 v70,2013-01-27 08:28:00,
2013-01-27 03:33:00,12.0,7.3,30.74,WSW,247,0.0,8.0,81,0.00,,,0.00,Weather View 32 v70,2013-01-27 08:33:00,
2013-01-27 03:38:00,12.0,7.3,30.74,WSW,247,3.0,6.0,81,0.00,,,0.00,Weather View 32 v70,2013-01-27 08:38:00,
2013-01-27 03:43:00,12.0,7.3,30.74,WSW,247,0.0,6.0,81,0.00,,,0.00,Weather View 32 v70,2013-01-27 08:43:00,
2013-01-27 03:48:00,12.0,7.3,30.74,WSW,247,1.0,6.0,81,0.00,,,0.00,Weather View 32 v70,2013-01-27 08:48:00,
2013-01-27 03:53:00,12.0,7.3,30.74,West,270,1.0,6.0,81,0.00,,,0.00,Weather View 32 v70,2013-01-27 08:53:00,
2013-01-27 03:58:00,12.0,7.8,30.74,WSW,247,0.0,6.0,83,0.00,,,0.00,Weather View 32 v70,2013-01-27 08:58:00,
2013-01-27 04:03:00,12.0,7.6,30.75,WSW,247,1.0,6.0,82,0.00,,,0.00,Weather View 32 v70,2013-01-27 09:03:00,
2013-01-27 04:08:00,11.0,7.1,30.75,West,270,1.0,6.0,84,0.00,,,0.00,Weather View 32 v70,2013-01-27 09:08:00,
2013-01-27 04:13:00,11.0,7.1,30.75,West,270,1.0,6.0,84,0.00,,,0.00,Weather View 32 v70,2013-01-27 09:13:00,
2013-01-27 04:18:00,11.0,7.1,30.75,West,270,0.0,5.0,84,0.00,,,0.00,Weather View 32 v70,2013-01-27 09:18:00,
2013-01-27 04:23:00,11.0,7.4,30.76,West,270,1.0,5.0,85,0.00,,,0.00,Weather View 32 v70,2013-01-27 09:23:00,
2013-01-27 04:28:00,11.0,7.6,30.76,WNW,292,1.0,5.0,86,0.00,,,0.00,Weather View 32 v70,2013-01-27 09:28:00,
2013-01-27 04:33:00,11.0,7.1,30.76,WSW,247,0.0,5.0,84,0.00,,,0.00,Weather View 32 v70,2013-01-27 09:33:00,
2013-01-27 04:38:00,11.0,7.4,30.76,WSW,247,0.0,5.0,85,0.00,,,0.00,Weather View 32 v70,2013-01-27 09:38:00,
2013-01-27 04:43:00,11.0,7.6,30.76,SW,225,1.0,5.0,86,0.00,,,0.00,Weather View 32 v70,2013-01-27 09:43:00,
2013-01-27 04:48:00,11.0,7.9,30.76,WSW,247,1.0,5.0,87,0.00,,,0.00,Weather View 32 v70,2013-01-27 09:48:00,
2013-01-27 04:53:00,11.0,7.6,30.77,WSW,247,0.0,5.0,86,0.00,,,0.00,Weather View 32 v70,2013-01-27 09:53:00,
2013-01-27 04:58:00,11.0,7.6,30.77,WSW,247,0.0,5.0,86,0.00,,,0.00,Weather View 32 v70,2013-01-27 09:58:00,
2013-01-27 05:03:00,11.0,7.6,30.77,WSW,247,1.0,5.0,86,0.00,,,0.00,Weather View 32 v70,2013-01-27 10:03:00,
2013-01-27 05:08:00,11.0,7.6,30.77,WSW,247,1.0,5.0,86,0.00,,,0.00,Weather View 32 v70,2013-01-27 10:08:00,
2013-01-27 05:13:00,11.0,7.9,30.77,WSW,247,2.0,5.0,87,0.00,,,0.00,Weather View 32 v70,2013-01-27 10:13:00,
2013-01-27 05:18:00,11.0,8.1,30.77,WSW,247,0.0,5.0,88,0.00,,,0.00,Weather View 32 v70,2013-01-27 10:18:00,
2013-01-27 05:23:00,11.0,8.1,30.77,SW,225,0.0,5.0,88,0.00,,,0.00,Weather View 32 v70,2013-01-27 10:23:00,
2013-01-27 05:28:00,11.0,8.1,30.77,SW,225,1.0,5.0,88,0.00,,,0.00,Weather View 32 v70,2013-01-27 10:28:00,
2013-01-27 05:33:00,11.0,8.1,30.77,SW,225,1.0,5.0,88,0.00,,,0.00,Weather View 32 v70,2013-01-27 10:33:00,
2013-01-27 05:38:00,11.0,8.4,30.77,SW,225,2.0,5.0,89,0.00,,,0.00,Weather View 32 v70,2013-01-27 10:38:00,
2013-01-27 05:43:00,11.0,8.4,30.77,SW,225,1.0,5.0,89,0.00,,,0.00,Weather View 32 v70,2013-01-27 10:43:00,
2013-01-27 05:48:00,11.0,8.9,30.77,SW,225,0.0,5.0,91,0.00,,,0.00,Weather View 32 v70,2013-01-27 10:48:00,
2013-01-27 05:53:00,11.0,8.9,30.78,SSW,202,0.0,6.0,91,0.00,,,0.00,Weather View 32 v70,2013-01-27 10:53:00,
2013-01-27 05:58:00,11.0,8.9,30.78,SSW,202,3.0,6.0,91,0.00,,,0.00,Weather View 32 v70,2013-01-27 10:58:00,
2013-01-27 06:03:00,11.0,8.6,30.78,SSW,202,1.0,6.0,90,0.00,,,0.00,Weather View 32 v70,2013-01-27 11:03:00,
2013-01-27 06:08:00,11.0,8.6,30.78,SSW,202,0.0,6.0,90,0.00,,,0.00,Weather View 32 v70,2013-01-27 11:08:00,
2013-01-27 06:13:00,10.0,7.7,30.78,SSW,202,1.0,6.0,90,0.00,,,0.00,Weather View 32 v70,2013-01-27 11:13:00,
2013-01-27 06:18:00,10.0,7.9,30.78,SSW,202,1.0,6.0,91,0.00,,,0.00,Weather View 32 v70,2013-01-27 11:18:00,
2013-01-27 06:23:00,10.0,7.9,30.79,SSW,202,1.0,6.0,91,0.00,,,0.00,Weather View 32 v70,2013-01-27 11:23:00,
2013-01-27 06:28:00,10.0,8.4,30.79,SSW,202,0.0,6.0,93,0.00,,,0.00,Weather View 32 v70,2013-01-27 11:28:00,
2013-01-27 06:33:00,10.0,8.4,30.79,SSW,202,1.0,6.0,93,0.00,,,0.00,Weather View 32 v70,2013-01-27 11:33:00,
2013-01-27 06:38:00,10.0,8.4,30.79,SSW,202,0.0,6.0,93,0.00,,,0.00,Weather View 32 v70,2013-01-27 11:38:00,
2013-01-27 06:43:00,10.0,8.6,30.80,SSW,202,1.0,6.0,94,0.00,,,0.00,Weather View 32 v70,2013-01-27 11:43:00,
2013-01-27 06:48:00,10.0,8.9,30.80,SSW,202,1.0,6.0,95,0.00,,,0.00,Weather View 32 v70,2013-01-27 11:48:00,
2013-01-27 06:53:00,10.0,8.9,30.80,SSW,202,2.0,5.0,95,0.00,,,0.00,Weather View 32 v70,2013-01-27 11:53:00,
2013-01-27 06:58:00,10.0,9.1,30.80,SSW,202,0.0,5.0,96,0.00,,,0.00,Weather View 32 v70,2013-01-27 11:58:00,
2013-01-27 07:03:00,10.0,8.9,30.80,SSW,202,0.0,3.0,95,0.00,,,0.00,Weather View 32 v70,2013-01-27 12:03:00,
2013-01-27 07:08:00,10.0,9.3,30.80,SSW,202,1.0,3.0,97,0.00,,,0.00,Weather View 32 v70,2013-01-27 12:08:00,
2013-01-27 07:13:00,10.0,9.3,30.81,SSW,202,5.0,6.0,97,0.00,,,0.00,Weather View 32 v70,2013-01-27 12:13:00,
2013-01-27 07:18:00,10.0,9.5,30.81,SW,225,1.0,6.0,98,0.00,,,0.00,Weather View 32 v70,2013-01-27 12:18:00,
2013-01-27 07:23:00,10.0,9.3,30.81,SW,225,1.0,6.0,97,0.00,,,0.00,Weather View 32 v70,2013-01-27 12:23:00,
2013-01-27 07:28:00,10.0,9.3,30.81,SW,225,0.0,6.0,97,0.00,,,0.00,Weather View 32 v70,2013-01-27 12:28:00,
2013-01-27 07:34:00,10.0,9.3,30.82,SW,225,0.0,6.0,97,0.00,,,0.00,Weather View 32 v70,2013-01-27 12:34:00,
2013-01-27 07:39:00,10.0,9.3,30.82,SW,225,0.0,6.0,97,0.00,,,0.00,Weather View 32 v70,2013-01-27 12:39:00,
2013-01-27 07:44:00,10.0,9.3,30.82,SW,225,0.0,6.0,97,0.00,,,0.00,Weather View 32 v70,2013-01-27 12:44:00,
2013-01-27 07:49:00,10.0,9.5,30.82,SW,225,0.0,6.0,98,0.00,,,0.00,Weather View 32 v70,2013-01-27 12:49:00,
2013-01-27 07:54:00,10.0,9.5,30.82,SW,225,2.0,6.0,98,0.00,,,0.00,Weather View 32 v70,2013-01-27 12:54:00,
2013-01-27 07:59:00,10.0,9.8,30.82,SW,225,0.0,6.0,99,0.00,,,0.00,Weather View 32 v70,2013-01-27 12:59:00,
2013-01-27 08:04:00,11.0,10.5,30.82,SW,225,2.0,6.0,98,0.00,,,0.00,Weather View 32 v70,2013-01-27 13:04:00,
2013-01-27 08:09:00,11.0,10.5,30.82,SW,225,0.0,6.0,98,0.00,,,0.00,Weather View 32 v70,2013-01-27 13:09:00,
2013-01-27 08:14:00,11.0,10.5,30.82,SW,225,0.0,6.0,98,0.00,,,0.00,Weather View 32 v70,2013-01-27 13:14:00,
2013-01-27 08:19:00,12.0,11.3,30.82,SSW,202,0.0,3.0,97,0.00,,,0.00,Weather View 32 v70,2013-01-27 13:19:00,
2013-01-27 08:24:00,12.0,10.6,30.83,SE,135,0.0,3.0,94,0.00,,,0.00,Weather View 32 v70,2013-01-27 13:24:00,
2013-01-27 08:29:00,12.0,10.6,30.83,SE,135,0.0,4.0,94,0.00,,,0.00,Weather View 32 v70,2013-01-27 13:29:00,
2013-01-27 08:34:00,13.0,11.1,30.82,SE,135,0.0,4.0,92,0.00,,,0.00,Weather View 32 v70,2013-01-27 13:34:00,
2013-01-27 08:39:00,13.0,11.1,30.82,SE,135,0.0,4.0,92,0.00,,,0.00,Weather View 32 v70,2013-01-27 13:39:00,
2013-01-27 08:44:00,13.0,11.1,30.82,SE,135,0.0,4.0,92,0.00,,,0.00,Weather View 32 v70,2013-01-27 13:44:00,
2013-01-27 08:49:00,13.0,11.4,30.82,North,360,3.0,4.0,93,0.00,,,0.00,Weather View 32 v70,2013-01-27 13:49:00,
2013-01-27 08:54:00,14.0,11.6,30.82,North,360,0.0,4.0,90,0.00,,,0.00,Weather View 32 v70,2013-01-27 13:54:00,
2013-01-27 08:59:00,16.0,13.3,30.82,North,360,0.0,4.0,89,0.00,,,0.00,Weather View 32 v70,2013-01-27 13:59:00,
2013-01-27 09:04:00,17.0,13.0,30.81,WNW,292,1.0,4.0,84,0.00,,,0.00,Weather View 32 v70,2013-01-27 14:04:00,
2013-01-27 09:09:00,18.0,12.6,30.81,NW,315,3.0,6.0,79,0.00,,,0.00,Weather View 32 v70,2013-01-27 14:09:00,
2013-01-27 09:14:00,20.0,12.7,30.80,WNW,292,0.0,6.0,73,0.00,,,0.00,Weather View 32 v70,2013-01-27 14:14:00,
2013-01-27 09:19:00,20.0,11.8,30.80,West,270,2.0,6.0,70,0.00,,,0.00,Weather View 32 v70,2013-01-27 14:19:00,
2013-01-27 09:24:00,20.0,10.5,30.80,NNW,337,5.0,7.0,66,0.00,,,0.00,Weather View 32 v70,2013-01-27 14:24:00,
2013-01-27 09:29:00,21.0,10.7,30.80,WNW,292,4.0,9.0,64,0.00,,,0.00,Weather View 32 v70,2013-01-27 14:29:00,
2013-01-27 09:34:00,22.0,9.9,30.79,NNW,337,6.0,9.0,59,0.00,,,0.00,Weather View 32 v70,2013-01-27 14:34:00,
2013-01-27 09:39:00,22.0,8.7,30.79,SW,225,5.0,9.0,56,0.00,,,0.00,Weather View 32 v70,2013-01-27 14:39:00,
2013-01-27 09:44:00,23.0,8.0,30.79,NNW,337,7.0,9.0,52,0.00,,,0.00,Weather View 32 v70,2013-01-27 14:44:00,
2013-01-27 09:49:00,23.0,7.6,30.79,North,360,7.0,10.0,51,0.00,,,0.00,Weather View 32 v70,2013-01-27 14:49:00,
2013-01-27 09:54:00,24.0,8.0,30.78,WNW,292,5.0,10.0,50,0.00,,,0.00,Weather View 32 v70,2013-01-27 14:54:00,
2013-01-27 09:59:00,24.0,8.0,30.78,NNW,337,8.0,10.0,50,0.00,,,0.00,Weather View 32 v70,2013-01-27 14:59:00,
2013-01-27 10:04:00,24.0,7.1,30.78,NW,315,1.0,10.0,48,0.00,,,0.00,Weather View 32 v70,2013-01-27 15:04:00,
2013-01-27 10:09:00,24.0,7.1,30.78,West,270,0.0,10.0,48,0.00,,,0.00,Weather View 32 v70,2013-01-27 15:09:00,
2013-01-27 10:14:00,24.0,5.7,30.79,NNW,337,2.0,10.0,45,0.00,,,0.00,Weather View 32 v70,2013-01-27 15:14:00,
2013-01-27 10:19:00,24.0,5.2,30.79,NNW,337,6.0,10.0,44,0.00,,,0.00,Weather View 32 v70,2013-01-27 15:19:00,
2013-01-27 10:24:00,25.0,8.1,30.78,NW,315,4.0,10.0,48,0.00,,,0.00,Weather View 32 v70,2013-01-27 15:24:00,
2013-01-27 10:29:00,25.0,6.6,30.78,NNW,337,1.0,10.0,45,0.00,,,0.00,Weather View 32 v70,2013-01-27 15:29:00,
2013-01-27 10:34:00,26.0,5.5,30.78,North,360,9.0,10.0,41,0.00,,,0.00,Weather View 32 v70,2013-01-27 15:34:00,
2013-01-27 10:39:00,26.0,6.0,30.78,NW,315,8.0,10.0,42,0.00,,,0.00,Weather View 32 v70,2013-01-27 15:39:00,
2013-01-27 10:44:00,26.0,5.5,30.79,NNW,337,8.0,10.0,41,0.00,,,0.00,Weather View 32 v70,2013-01-27 15:44:00,
2013-01-27 10:49:00,26.0,5.0,30.79,NW,315,9.0,10.0,40,0.00,,,0.00,Weather View 32 v70,2013-01-27 15:49:00,
2013-01-27 10:54:00,27.0,4.8,30.78,NNW,337,5.0,10.0,38,0.00,,,0.00,Weather View 32 v70,2013-01-27 15:54:00,
2013-01-27 10:59:00,28.0,5.7,30.78,NW,315,1.0,10.0,38,0.00,,,0.00,Weather View 32 v70,2013-01-27 15:59:00,
2013-01-27 11:04:00,28.0,4.5,30.78,WNW,292,2.0,10.0,36,0.00,,,0.00,Weather View 32 v70,2013-01-27 16:04:00,
2013-01-27 11:09:00,28.0,6.8,30.78,NW,315,4.0,10.0,40,0.00,,,0.00,Weather View 32 v70,2013-01-27 16:09:00,
2013-01-27 11:14:00,29.0,6.6,30.77,NNW,337,7.0,10.0,38,0.00,,,0.00,Weather View 32 v70,2013-01-27 16:14:00,
2013-01-27 11:19:00,29.0,6.6,30.77,NW,315,4.0,10.0,38,0.00,,,0.00,Weather View 32 v70,2013-01-27 16:19:00,
2013-01-27 11:24:00,29.0,6.0,30.77,NNW,337,7.0,12.0,37,0.00,,,0.00,Weather View 32 v70,2013-01-27 16:24:00,
2013-01-27 11:29:00,29.0,4.8,30.77,NNW,337,7.0,12.0,35,0.00,,,0.00,Weather View 32 v70,2013-01-27 16:29:00,
2013-01-27 11:34:00,30.0,6.9,30.76,NW,315,1.0,12.0,37,0.00,,,0.00,Weather View 32 v70,2013-01-27 16:34:00,
2013-01-27 11:39:00,30.0,6.9,30.76,NW,315,0.0,12.0,37,0.00,,,0.00,Weather View 32 v70,2013-01-27 16:39:00,
2013-01-27 11:44:00,30.0,5.0,30.75,NW,315,6.0,12.0,34,0.00,,,0.00,Weather View 32 v70,2013-01-27 16:44:00,
2013-01-27 11:49:00,29.0,4.8,30.75,WSW,247,1.0,12.0,35,0.00,,,0.00,Weather View 32 v70,2013-01-27 16:49:00,
2013-01-27 11:54:00,29.0,4.8,30.76,North,360,6.0,12.0,35,0.00,,,0.00,Weather View 32 v70,2013-01-27 16:54:00,
2013-01-27 11:59:00,29.0,4.1,30.76,North,360,12.0,12.0,34,0.00,,,0.00,Weather View 32 v70,2013-01-27 16:59:00,
2013-01-27 12:04:00,30.0,5.6,30.74,NW,315,4.0,12.0,35,0.00,,,0.00,Weather View 32 v70,2013-01-27 17:04:00,
2013-01-27 12:09:00,31.0,6.5,30.74,NNW,337,2.0,12.0,35,0.00,,,0.00,Weather View 32 v70,2013-01-27 17:09:00,
2013-01-27 12:14:00,31.0,6.5,30.74,NW,315,7.0,12.0,35,0.00,,,0.00,Weather View 32 v70,2013-01-27 17:14:00,
2013-01-27 12:19:00,31.0,5.2,30.74,WSW,247,1.0,12.0,33,0.00,,,0.00,Weather View 32 v70,2013-01-27 17:19:00,
2013-01-27 12:24:00,31.0,5.2,30.74,NNW,337,8.0,12.0,33,0.00,,,0.00,Weather View 32 v70,2013-01-27 17:24:00,
2013-01-27 12:29:00,32.0,6.1,30.74,NNW,337,4.0,12.0,33,0.00,,,0.00,Weather View 32 v70,2013-01-27 17:29:00,
2013-01-27 12:34:00,32.0,6.1,30.73,NW,315,2.0,12.0,33,0.00,,,0.00,Weather View 32 v70,2013-01-27 17:34:00,
2013-01-27 12:39:00,33.0,6.3,30.73,WNW,292,1.0,12.0,32,0.00,,,0.00,Weather View 32 v70,2013-01-27 17:39:00,
2013-01-27 12:44:00,33.0,6.3,30.72,NNW,337,3.0,12.0,32,0.00,,,0.00,Weather View 32 v70,2013-01-27 17:44:00,
2013-01-27 12:49:00,34.0,7.2,30.72,West,270,1.0,12.0,32,0.00,,,0.00,Weather View 32 v70,2013-01-27 17:49:00,
2013-01-27 12:54:00,34.0,6.5,30.72,NW,315,1.0,12.0,31,0.00,,,0.00,Weather View 32 v70,2013-01-27 17:54:00,
2013-01-27 12:59:00,34.0,5.1,30.72,NNW,337,3.0,12.0,29,0.00,,,0.00,Weather View 32 v70,2013-01-27 17:59:00,
2013-01-27 13:04:00,34.0,6.5,30.72,WNW,292,1.0,12.0,31,0.00,,,0.00,Weather View 32 v70,2013-01-27 18:04:00,
2013-01-27 13:09:00,34.0,5.8,30.72,NNW,337,8.0,12.0,30,0.00,,,0.00,Weather View 32 v70,2013-01-27 18:09:00,
2013-01-27 13:14:00,34.0,5.1,30.71,North,360,10.0,12.0,29,0.00,,,0.00,Weather View 32 v70,2013-01-27 18:14:00,
2013-01-27 13:19:00,34.0,6.5,30.71,West,270,2.0,12.0,31,0.00,,,0.00,Weather View 32 v70,2013-01-27 18:19:00,
2013-01-27 13:24:00,35.0,8.1,30.70,NW,315,3.0,12.0,32,0.00,,,0.00,Weather View 32 v70,2013-01-27 18:24:00,
2013-01-27 13:29:00,35.0,7.4,30.70,NNW,337,7.0,12.0,31,0.00,,,0.00,Weather View 32 v70,2013-01-27 18:29:00,
2013-01-27 13:34:00,35.0,5.9,30.70,WSW,247,0.0,12.0,29,0.00,,,0.00,Weather View 32 v70,2013-01-27 18:34:00,
2013-01-27 13:39:00,35.0,6.7,30.70,NNE,22,5.0,12.0,30,0.00,,,0.00,Weather View 32 v70,2013-01-27 18:39:00,
2013-01-27 13:44:00,36.0,6.0,30.69,NNW,337,2.0,12.0,28,0.00,,,0.00,Weather View 32 v70,2013-01-27 18:44:00,
2013-01-27 13:49:00,36.0,5.2,30.69,NE,45,6.0,12.0,27,0.00,,,0.00,Weather View 32 v70,2013-01-27 18:49:00,
2013-01-27 13:54:00,35.0,4.4,30.69,NNW,337,1.0,12.0,27,0.00,,,0.00,Weather View 32 v70,2013-01-27 18:54:00,
2013-01-27 14:00:00,35.0,4.4,30.69,North,360,6.0,12.0,27,0.00,,,0.00,Weather View 32 v70,2013-01-27 19:00:00,
2013-01-27 14:05:00,35.0,5.9,30.69,North,360,7.0,12.0,29,0.00,,,0.00,Weather View 32 v70,2013-01-27 19:05:00,
2013-01-27 14:10:00,35.0,5.2,30.69,NW,315,1.0,12.0,28,0.00,,,0.00,Weather View 32 v70,2013-01-27 19:10:00,
2013-01-27 14:15:00,35.0,5.9,30.70,NW,315,1.0,12.0,29,0.00,,,0.00,Weather View 32 v70,2013-01-27 19:15:00,
2013-01-27 14:20:00,34.0,3.5,30.70,NNW,337,3.0,10.0,27,0.00,,,0.00,Weather View 32 v70,2013-01-27 19:20:00,
2013-01-27 14:25:00,34.0,3.5,30.70,NNW,337,2.0,10.0,27,0.00,,,0.00,Weather View 32 v70,2013-01-27 19:25:00,
2013-01-27 14:30:00,33.0,4.2,30.70,NW,315,3.0,10.0,29,0.00,,,0.00,Weather View 32 v70,2013-01-27 19:30:00,
2013-01-27 14:35:00,34.0,5.1,30.70,WSW,247,0.0,10.0,29,0.00,,,0.00,Weather View 32 v70,2013-01-27 19:35:00,
2013-01-27 14:40:00,34.0,2.7,30.70,NNW,337,5.0,10.0,26,0.00,,,0.00,Weather View 32 v70,2013-01-27 19:40:00,
2013-01-27 14:45:00,34.0,2.7,30.70,NNW,337,5.0,12.0,26,0.00,,,0.00,Weather View 32 v70,2013-01-27 19:45:00,
2013-01-27 14:50:00,34.0,5.1,30.70,SW,225,4.0,12.0,29,0.00,,,0.00,Weather View 32 v70,2013-01-27 19:50:00,
2013-01-27 14:55:00,35.0,2.7,30.69,NNW,337,6.0,12.0,25,0.00,,,0.00,Weather View 32 v70,2013-01-27 19:55:00,
2013-01-27 15:00:00,35.0,3.5,30.69,North,360,7.0,12.0,26,0.00,,,0.00,Weather View 32 v70,2013-01-27 20:00:00,
2013-01-27 15:05:00,35.0,4.4,30.70,NW,315,1.0,12.0,27,0.00,,,0.00,Weather View 32 v70,2013-01-27 20:05:00,
2013-01-27 15:10:00,35.0,5.9,30.70,WNW,292,1.0,12.0,29,0.00,,,0.00,Weather View 32 v70,2013-01-27 20:10:00,
2013-01-27 15:15:00,36.0,6.0,30.70,NW,315,0.0,12.0,28,0.00,,,0.00,Weather View 32 v70,2013-01-27 20:15:00,
2013-01-27 15:20:00,36.0,6.8,30.70,SSE,157,0.0,12.0,29,0.00,,,0.00,Weather View 32 v70,2013-01-27 20:20:00,
2013-01-27 15:25:00,37.0,6.9,30.69,WNW,292,1.0,12.0,28,0.00,,,0.00,Weather View 32 v70,2013-01-27 20:25:00,
2013-01-27 15:30:00,37.0,5.3,30.69,NNW,337,1.0,12.0,26,0.00,,,0.00,Weather View 32 v70,2013-01-27 20:30:00,
2013-01-27 15:35:00,37.0,5.3,30.69,NW,315,0.0,12.0,26,0.00,,,0.00,Weather View 32 v70,2013-01-27 20:35:00,
2013-01-27 15:40:00,37.0,6.1,30.69,NNW,337,0.0,12.0,27,0.00,,,0.00,Weather View 32 v70,2013-01-27 20:40:00,
2013-01-27 15:45:00,37.0,6.1,30.70,NW,315,0.0,12.0,27,0.00,,,0.00,Weather View 32 v70,2013-01-27 20:45:00,
2013-01-27 15:50:00,36.0,6.0,30.70,SW,225,3.0,10.0,28,0.00,,,0.00,Weather View 32 v70,2013-01-27 20:50:00,
2013-01-27 15:55:00,35.0,4.4,30.70,NNW,337,5.0,10.0,27,0.00,,,0.00,Weather View 32 v70,2013-01-27 20:55:00,
2013-01-27 16:00:00,34.0,4.3,30.70,NNW,337,6.0,10.0,28,0.00,,,0.00,Weather View 32 v70,2013-01-27 21:00:00,
2013-01-27 16:05:00,34.0,4.3,30.71,WNW,292,3.0,7.0,28,0.00,,,0.00,Weather View 32 v70,2013-01-27 21:05:00,
2013-01-27 16:10:00,33.0,4.2,30.71,WNW,292,2.0,7.0,29,0.00,,,0.00,Weather View 32 v70,2013-01-27 21:10:00,
2013-01-27 16:15:00,32.0,5.4,30.73,West,270,0.0,7.0,32,0.00,,,0.00,Weather View 32 v70,2013-01-27 21:15:00,
2013-01-27 16:20:00,31.0,4.6,30.73,West,270,0.0,7.0,32,0.00,,,0.00,Weather View 32 v70,2013-01-27 21:20:00,
2013-01-27 16:25:00,31.0,4.6,30.74,NW,315,0.0,7.0,32,0.00,,,0.00,Weather View 32 v70,2013-01-27 21:25:00,
2013-01-27 16:30:00,30.0,4.4,30.74,NW,315,0.0,7.0,33,0.00,,,0.00,Weather View 32 v70,2013-01-27 21:30:00,
2013-01-27 16:35:00,30.0,4.4,30.74,WNW,292,0.0,7.0,33,0.00,,,0.00,Weather View 32 v70,2013-01-27 21:35:00,
2013-01-27 16:40:00,29.0,4.1,30.74,NW,315,3.0,7.0,34,0.00,,,0.00,Weather View 32 v70,2013-01-27 21:40:00,
2013-01-27 16:45:00,29.0,4.1,30.75,NW,315,1.0,7.0,34,0.00,,,0.00,Weather View 32 v70,2013-01-27 21:45:00,
2013-01-27 16:50:00,28.0,3.9,30.75,NW,315,0.0,7.0,35,0.00,,,0.00,Weather View 32 v70,2013-01-27 21:50:00,
2013-01-27 16:55:00,27.0,4.2,30.75,NW,315,1.0,7.0,37,0.00,,,0.00,Weather View 32 v70,2013-01-27 21:55:00,
2013-01-27 17:00:00,27.0,4.2,30.75,NW,315,0.0,7.0,37,0.00,,,0.00,Weather View 32 v70,2013-01-27 22:00:00,
2013-01-27 17:05:00,27.0,4.2,30.76,NW,315,0.0,7.0,37,0.00,,,0.00,Weather View 32 v70,2013-01-27 22:05:00,
2013-01-27 17:10:00,27.0,3.6,30.76,WNW,292,2.0,7.0,36,0.00,,,0.00,Weather View 32 v70,2013-01-27 22:10:00,
2013-01-27 17:15:00,27.0,4.2,30.77,WNW,292,1.0,7.0,37,0.00,,,0.00,Weather View 32 v70,2013-01-27 22:15:00,
2013-01-27 17:20:00,26.0,3.3,30.77,West,270,0.0,7.0,37,0.00,,,0.00,Weather View 32 v70,2013-01-27 22:20:00,
2013-01-27 17:25:00,26.0,3.9,30.78,West,270,0.0,7.0,38,0.00,,,0.00,Weather View 32 v70,2013-01-27 22:25:00,
2013-01-27 17:30:00,26.0,3.9,30.78,WSW,247,0.0,7.0,38,0.00,,,0.00,Weather View 32 v70,2013-01-27 22:30:00,
2013-01-27 17:35:00,26.0,3.9,30.78,NW,315,0.0,7.0,38,0.00,,,0.00,Weather View 32 v70,2013-01-27 22:35:00,
2013-01-27 17:40:00,25.0,3.0,30.78,NW,315,1.0,5.0,38,0.00,,,0.00,Weather View 32 v70,2013-01-27 22:40:00,
2013-01-27 17:45:00,25.0,3.0,30.80,NW,315,0.0,5.0,38,0.00,,,0.00,Weather View 32 v70,2013-01-27 22:45:00,
2013-01-27 17:50:00,25.0,4.1,30.80,NW,315,1.0,5.0,40,0.00,,,0.00,Weather View 32 v70,2013-01-27 22:50:00,
2013-01-27 17:55:00,25.0,3.5,30.80,NW,315,0.0,6.0,39,0.00,,,0.00,Weather View 32 v70,2013-01-27 22:55:00,
2013-01-27 18:00:00,25.0,3.5,30.80,NW,315,0.0,6.0,39,0.00,,,0.00,Weather View 32 v70,2013-01-27 23:00:00,
2013-01-27 18:05:00,25.0,4.1,30.80,NW,315,1.0,6.0,40,0.00,,,0.00,Weather View 32 v70,2013-01-27 23:05:00,
2013-01-27 18:10:00,25.0,4.1,30.80,NW,315,2.0,6.0,40,0.00,,,0.00,Weather View 32 v70,2013-01-27 23:10:00,
2013-01-27 18:15:00,25.0,3.0,30.80,NW,315,0.0,6.0,38,0.00,,,0.00,Weather View 32 v70,2013-01-27 23:15:00,
2013-01-27 18:20:00,25.0,4.1,30.80,NW,315,1.0,6.0,40,0.00,,,0.00,Weather View 32 v70,2013-01-27 23:20:00,
2013-01-27 18:25:00,25.0,3.5,30.80,NW,315,2.0,6.0,39,0.00,,,0.00,Weather View 32 v70,2013-01-27 23:25:00,
2013-01-27 18:30:00,25.0,4.1,30.80,NW,315,2.0,6.0,40,0.00,,,0.00,Weather View 32 v70,2013-01-27 23:30:00,
2013-01-27 18:35:00,24.0,2.6,30.80,NW,315,0.0,6.0,39,0.00,,,0.00,Weather View 32 v70,2013-01-27 23:35:00,
2013-01-27 18:40:00,24.0,2.1,30.80,NW,315,5.0,6.0,38,0.00,,,0.00,Weather View 32 v70,2013-01-27 23:40:00,
2013-01-27 18:45:00,25.0,2.4,30.80,WNW,292,0.0,6.0,37,0.00,,,0.00,Weather View 32 v70,2013-01-27 23:45:00,
2013-01-27 18:50:00,25.0,1.8,30.80,NNW,337,3.0,6.0,36,0.00,,,0.00,Weather View 32 v70,2013-01-27 23:50:00,
2013-01-27 18:55:00,25.0,1.2,30.80,WNW,292,1.0,7.0,35,0.00,,,0.00,Weather View 32 v70,2013-01-27 23:55:00,
2013-01-27 19:00:00,25.0,2.4,30.80,NW,315,0.0,7.0,37,0.00,,,0.00,Weather View 32 v70,2013-01-28 00:00:00,
2013-01-27 19:05:00,25.0,1.8,30.80,NW,315,0.0,7.0,36,0.00,,,0.00,Weather View 32 v70,2013-01-28 00:05:00,
2013-01-27 19:10:00,24.0,1.5,30.80,NW,315,0.0,7.0,37,0.00,,,0.00,Weather View 32 v70,2013-01-28 00:10:00,
2013-01-27 19:15:00,24.0,1.5,30.82,NW,315,1.0,7.0,37,0.00,,,0.00,Weather View 32 v70,2013-01-28 00:15:00,
2013-01-27 19:20:00,24.0,2.1,30.82,NW,315,0.0,7.0,38,0.00,,,0.00,Weather View 32 v70,2013-01-28 00:20:00,
2013-01-27 19:25:00,24.0,2.6,30.82,NW,315,1.0,7.0,39,0.00,,,0.00,Weather View 32 v70,2013-01-28 00:25:00,
2013-01-27 19:30:00,23.0,1.2,30.82,NW,315,0.0,7.0,38,0.00,,,0.00,Weather View 32 v70,2013-01-28 00:30:00,
2013-01-27 19:35:00,23.0,1.2,30.82,NW,315,2.0,7.0,38,0.00,,,0.00,Weather View 32 v70,2013-01-28 00:35:00,
2013-01-27 19:40:00,23.0,1.2,30.82,NW,315,0.0,7.0,38,0.00,,,0.00,Weather View 32 v70,2013-01-28 00:40:00,
2013-01-27 19:45:00,23.0,1.7,30.83,NW,315,0.0,7.0,39,0.00,,,0.00,Weather View 32 v70,2013-01-28 00:45:00,
2013-01-27 19:50:00,23.0,1.7,30.83,NW,315,0.0,7.0,39,0.00,,,0.00,Weather View 32 v70,2013-01-28 00:50:00,
2013-01-27 19:55:00,22.0,1.9,30.84,NW,315,0.0,6.0,41,0.00,,,0.00,Weather View 32 v70,2013-01-28 00:55:00,
2013-01-27 20:00:00,22.0,1.9,30.84,NW,315,0.0,5.0,41,0.00,,,0.00,Weather View 32 v70,2013-01-28 01:00:00,
2013-01-27 20:05:00,22.0,2.9,30.84,NW,315,0.0,5.0,43,0.00,,,0.00,Weather View 32 v70,2013-01-28 01:05:00,
2013-01-27 20:10:00,22.0,3.4,30.84,NW,315,0.0,5.0,44,0.00,,,0.00,Weather View 32 v70,2013-01-28 01:10:00,
2013-01-27 20:15:00,22.0,2.9,30.84,NW,315,0.0,5.0,43,0.00,,,0.00,Weather View 32 v70,2013-01-28 01:15:00,
2013-01-27 20:20:00,22.0,4.4,30.84,NW,315,0.0,5.0,46,0.00,,,0.00,Weather View 32 v70,2013-01-28 01:20:00,
2013-01-27 20:25:00,22.0,2.9,30.84,NW,315,0.0,5.0,43,0.00,,,0.00,Weather View 32 v70,2013-01-28 01:25:00,
2013-01-27 20:30:00,22.0,2.9,30.84,NW,315,0.0,5.0,43,0.00,,,0.00,Weather View 32 v70,2013-01-28 01:30:00,
2013-01-27 20:35:00,22.0,2.9,30.84,NW,315,0.0,5.0,43,0.00,,,0.00,Weather View 32 v70,2013-01-28 01:35:00,
2013-01-27 20:41:00,21.0,2.0,30.84,NW,315,0.0,0.0,43,0.00,,,0.00,Weather View 32 v70,2013-01-28 01:41:00,
2013-01-27 20:46:00,21.0,2.5,30.84,NW,315,0.0,0.0,44,0.00,,,0.00,Weather View 32 v70,2013-01-28 01:46:00,
2013-01-27 20:51:00,21.0,3.5,30.84,NW,315,0.0,0.0,46,0.00,,,0.00,Weather View 32 v70,2013-01-28 01:51:00,
2013-01-27 20:56:00,21.0,3.5,30.83,NW,315,0.0,0.0,46,0.00,,,0.00,Weather View 32 v70,2013-01-28 01:56:00,
2013-01-27 21:01:00,21.0,3.9,30.83,NW,315,0.0,0.0,47,0.00,,,0.00,Weather View 32 v70,2013-01-28 02:01:00,
2013-01-27 21:06:00,21.0,4.8,30.84,NW,315,2.0,2.0,49,0.00,,,0.00,Weather View 32 v70,2013-01-28 02:06:00,
2013-01-27 21:11:00,21.0,7.8,30.84,NW,315,0.0,2.0,56,0.00,,,0.00,Weather View 32 v70,2013-01-28 02:11:00,
2013-01-27 21:16:00,21.0,6.1,30.84,NW,315,0.0,2.0,52,0.00,,,0.00,Weather View 32 v70,2013-01-28 02:16:00,
2013-01-27 21:21:00,20.0,3.5,30.84,NW,315,0.0,2.0,48,0.00,,,0.00,Weather View 32 v70,2013-01-28 02:21:00,
2013-01-27 21:26:00,20.0,2.5,30.85,NW,315,0.0,2.0,46,0.00,,,0.00,Weather View 32 v70,2013-01-28 02:26:00,
2013-01-27 21:31:00,20.0,3.5,30.85,NW,315,0.0,2.0,48,0.00,,,0.00,Weather View 32 v70,2013-01-28 02:31:00,
2013-01-27 21:36:00,20.0,3.0,30.84,NW,315,0.0,2.0,47,0.00,,,0.00,Weather View 32 v70,2013-01-28 02:36:00,
2013-01-27 21:41:00,20.0,3.0,30.84,NW,315,0.0,2.0,47,0.00,,,0.00,Weather View 32 v70,2013-01-28 02:41:00,
2013-01-27 21:46:00,20.0,3.5,30.85,NW,315,0.0,2.0,48,0.00,,,0.00,Weather View 32 v70,2013-01-28 02:46:00,
2013-01-27 21:51:00,19.0,2.1,30.85,NW,315,0.0,2.0,47,0.00,,,0.00,Weather View 32 v70,2013-01-28 02:51:00,
2013-01-27 21:56:00,20.0,3.9,30.84,NW,315,0.0,2.0,49,0.00,,,0.00,Weather View 32 v70,2013-01-28 02:56:00,
2013-01-27 22:01:00,20.0,3.5,30.84,NW,315,0.0,2.0,48,0.00,,,0.00,Weather View 32 v70,2013-01-28 03:01:00,
2013-01-27 22:06:00,20.0,2.5,30.85,NW,315,0.0,2.0,46,0.00,,,0.00,Weather View 32 v70,2013-01-28 03:06:00,
2013-01-27 22:11:00,19.0,4.3,30.85,NW,315,0.0,0.0,52,0.00,,,0.00,Weather View 32 v70,2013-01-28 03:11:00,
2013-01-27 22:16:00,19.0,4.3,30.85,NW,315,0.0,0.0,52,0.00,,,0.00,Weather View 32 v70,2013-01-28 03:16:00,
2013-01-27 22:21:00,19.0,2.1,30.85,NW,315,0.0,0.0,47,0.00,,,0.00,Weather View 32 v70,2013-01-28 03:21:00,
2013-01-27 22:26:00,19.0,1.2,30.85,NW,315,0.0,0.0,45,0.00,,,0.00,Weather View 32 v70,2013-01-28 03:26:00,
2013-01-27 22:31:00,19.0,1.6,30.85,NW,315,0.0,0.0,46,0.00,,,0.00,Weather View 32 v70,2013-01-28 03:31:00,
2013-01-27 22:36:00,19.0,1.6,30.85,NW,315,0.0,0.0,46,0.00,,,0.00,Weather View 32 v70,2013-01-28 03:36:00,
2013-01-27 22:41:00,18.0,2.5,30.85,NW,315,1.0,2.0,50,0.00,,,0.00,Weather View 32 v70,2013-01-28 03:41:00,
2013-01-27 22:46:00,18.0,2.9,30.86,NW,315,0.0,2.0,51,0.00,,,0.00,Weather View 32 v70,2013-01-28 03:46:00,
2013-01-27 22:51:00,18.0,3.3,30.86,NW,315,0.0,2.0,52,0.00,,,0.00,Weather View 32 v70,2013-01-28 03:51:00,
2013-01-27 22:56:00,18.0,3.3,30.86,NW,315,0.0,2.0,52,0.00,,,0.00,Weather View 32 v70,2013-01-28 03:56:00,
2013-01-27 23:01:00,17.0,2.4,30.86,NW,315,0.0,2.0,52,0.00,,,0.00,Weather View 32 v70,2013-01-28 04:01:00,
2013-01-27 23:06:00,17.0,2.0,30.86,NW,315,0.0,2.0,51,0.00,,,0.00,Weather View 32 v70,2013-01-28 04:06:00,
2013-01-27 23:11:00,17.0,3.2,30.86,NW,315,2.0,2.0,54,0.00,,,0.00,Weather View 32 v70,2013-01-28 04:11:00,
2013-01-27 23:17:00,17.0,3.2,30.86,NW,315,0.0,2.0,54,0.00,,,0.00,Weather View 32 v70,2013-01-28 04:17:00,
2013-01-27 23:22:00,17.0,4.4,30.86,NW,315,0.0,2.0,57,0.00,,,0.00,Weather View 32 v70,2013-01-28 04:22:00,
2013-01-27 23:27:00,17.0,4.4,30.85,NW,315,0.0,2.0,57,0.00,,,0.00,Weather View 32 v70,2013-01-28 04:27:00,
2013-01-27 23:32:00,17.0,3.2,30.85,NW,315,0.0,2.0,54,0.00,,,0.00,Weather View 32 v70,2013-01-28 04:32:00,
2013-01-27 23:37:00,17.0,5.1,30.85,NW,315,0.0,2.0,59,0.00,,,0.00,Weather View 32 v70,2013-01-28 04:37:00,
2013-01-27 23:42:00,17.0,6.6,30.85,NW,315,0.0,2.0,63,0.00,,,0.00,Weather View 32 v70,2013-01-28 04:42:00,
2013-01-27 23:47:00,17.0,6.9,30.85,NW,315,0.0,2.0,64,0.00,,,0.00,Weather View 32 v70,2013-01-28 04:47:00,
2013-01-27 23:52:00,17.0,5.9,30.85,NW,315,0.0,2.0,61,0.00,,,0.00,Weather View 32 v70,2013-01-28 04:52:00,
2013-01-27 23:57:00,16.0,4.9,30.86,NW,315,0.0,2.0,61,0.00,,,0.00,Weather View 32 v70,2013-01-28 04:57:00,